Laramie, WY

8:02 AM MDT on April 25, 2017 (GMT -0600)
Laramie Regional

Weather History for KLAR - January, 2011

Change the Weather History Date:

Monday, January 3, 2011

  Actual Average Record
Temperature  
Mean Temperature 10 °F 22 °F  
Max Temperature 22 °F 33 °F 50 °F (1981)
Min Temperature -3 °F 10 °F -32 °F (1974)
Degree Days  
Heating Degree Days 55 43  
Month to date heating degree days 171 130  
Since 1 July heating degree days 3473 3803  
Cooling Degree Days 0 0  
Month to date cooling degree days 0 0  
Year to date cooling degree days 0 0  
Moisture  
Dew Point 6 °F    
Average Humidity 78    
Maximum Humidity 95    
Minimum Humidity 61    
Precipitation  
Precipitation T in 0.01 in 0.79 in (1949)
Month to date precipitation T 0.03  
Year to date precipitation T 0.03  
Sea Level Pressure  
Sea Level Pressure 30.04 in    
Wind  
Wind Speed 10 mph (West)    
Max Wind Speed 25 mph    
Max Gust Speed 32 mph    
Visibility 10 miles    
Events      
T = Trace of Precipitation, MM = Missing Value Source: NWS Daily Summary

Daily Weather History Graph

Daily Weather History Graph

Search for Another Location

Airport or City:

Trip Planner

Search our weather history database for the weather conditions in past years. The results will help you decide how hot, cold, wet, or windy it might be!

Date:

Astronomy

Jan. 03, 2011 Rise Set
Actual Time 7:28 AM MST 4:45 PM MST
Civil Twilight 6:57 AM MST 5:16 PM MST
Nautical Twilight 6:23 AM MST 5:51 PM MST
Astronomical Twilight 5:49 AM MST 6:25 PM MST
Moon 6:56 AM MST (1/3) 4:19 PM MST (1/3)
Length of Visible Light 10h 19m
Length of Day
9h 17m
Waning Crescent, 0% of the Moon is Illuminated
Jan 3
Waning Crescent
Jan 4
New
Jan 12
First Quarter
Jan 19
Full
Jan 26
Last Quarter

Hourly Weather History & Observations

Time (MST) Temp. Windchill Dew Point Humidity Pressure Visibility Wind Dir Wind Speed Gust Speed Precip Events Conditions
12:53 AM 16.0 °F 5.3 °F 9.0 °F 74% 29.97 in 10.0 mi SW 8.1 mph - N/A   Clear
1:53 AM 15.1 °F 1.1 °F 8.1 °F 74% 29.96 in 10.0 mi WSW 12.7 mph - N/A   Clear
2:53 AM 14.0 °F 6.5 °F 8.1 °F 77% 29.99 in 10.0 mi South 4.6 mph - N/A   Scattered Clouds
3:53 AM 17.1 °F 0.1 °F 7.0 °F 65% 29.95 in 10.0 mi WSW 20.7 mph 32.2 mph N/A   Scattered Clouds
4:53 AM 19.9 °F 5.2 °F 9.0 °F 62% 29.94 in 10.0 mi WSW 17.3 mph - N/A   Mostly Cloudy
5:53 AM 19.0 °F 11.1 °F 8.1 °F 62% 29.97 in 10.0 mi WSW 5.8 mph - N/A   Overcast
6:53 AM 19.0 °F 8.2 °F 9.0 °F 65% 29.99 in 10.0 mi WSW 9.2 mph - N/A   Overcast
7:53 AM 16.0 °F 4.4 °F 7.0 °F 68% 30.00 in 10.0 mi WSW 9.2 mph - N/A   Mostly Cloudy
8:53 AM 16.0 °F 2.3 °F 8.1 °F 71% 30.04 in 10.0 mi SW 12.7 mph - N/A   Partly Cloudy
9:53 AM 16.0 °F 2.9 °F 8.1 °F 71% 30.06 in 10.0 mi WSW 11.5 mph - N/A   Clear
10:53 AM 19.9 °F 4.8 °F 10.0 °F 65% 30.03 in 10.0 mi West 18.4 mph - N/A   Clear
11:53 AM 21.9 °F 11.0 °F 12.0 °F 66% 30.00 in 10.0 mi West 10.4 mph - N/A   Clear
12:53 PM 15.8 °F 1.4 °F 10.4 °F 79% 29.88 in 10.0 mi North 13.8 mph - N/A   Clear
1:53 PM 16.0 °F 1.7 °F 10.0 °F 77% 30.04 in 10.0 mi NNW 13.8 mph - N/A   Clear
2:53 PM 15.1 °F 5.2 °F 10.0 °F 80% 30.05 in 10.0 mi NNW 6.9 mph - N/A   Clear
3:53 PM 14.0 °F 2.9 °F 8.1 °F 77% 30.06 in 10.0 mi North 8.1 mph - N/A   Clear
4:53 PM 9.0 °F -2.2 °F 3.9 °F 80% 30.08 in 10.0 mi East 6.9 mph - N/A   Clear
5:53 PM 6.1 °F -7.8 °F 1.9 °F 83% 30.11 in 10.0 mi East 9.2 mph - N/A   Clear
6:53 PM 1.9 °F -10.6 °F -0.0 °F 91% 30.14 in 10.0 mi NE 6.9 mph - N/A   Clear
7:53 PM 3.9 °F -10.4 °F 1.0 °F 88% 30.15 in 10.0 mi East 9.2 mph - N/A   Clear
8:53 PM 3.9 °F -8.2 °F 1.9 °F 91% 30.15 in 10.0 mi NE 6.9 mph - N/A   Clear
9:53 PM 3.0 °F -11.5 °F -0.0 °F 87% 30.16 in 10.0 mi ENE 9.2 mph - N/A   Clear
10:53 PM 3.9 °F - -0.9 °F 80% 30.14 in 10.0 mi Calm Calm - N/A   Clear
11:53 PM -2.9 °F - -6.0 °F 87% 30.16 in 10.0 mi Calm Calm - N/A   Clear